When you browse on this site, cookies collect data to enhance your experience and personalize the content and advertising you see.
Visit our Privacy Policy to learn more. By continuing to use the site, you agree to this use of cookies and data.
  • In United Kingdom
  • List of Countries
  • For 7 days
  • Water Temperature
  • Satellite Maps
  • Weather Map
  • Weather Widgets
  • user-avatar
    Login

    Hourly Weather Muyinga

    Today, 21 November, Wednesday

    Time Temperature Precipitation Wind Pressure Humidity
    00:00 +18°C° 0.4 mm 1 mps 628 mmHg 92%
    01:00 +18°C° 0.4 mm 1 mps 628 mmHg 92%
    02:00 +16°C° 0.4 mm 1 mps 627 mmHg 93%
    03:00 +16°C° 0 mm 1 mps 627 mmHg 93%
    04:00 +16°C° 0 mm 1 mps 627 mmHg 93%
    05:00 +15°C° 0 mm 0 mps 627 mmHg 93%
    06:00 +17°C° 0 mm 0 mps 628 mmHg 88%
    07:00 +18°C° 0 mm 0 mps 629 mmHg 83%
    08:00 +20°C° 0 mm 0 mps 630 mmHg 78%
    09:00 +23°C° 0.7 mm 1 mps 630 mmHg 75%
    10:00 +24°C° 0.7 mm 1 mps 630 mmHg 71%
    11:00 +25°C° 0.7 mm 1 mps 630 mmHg 67%
    12:00 +25°C° 1 mm 1 mps 629 mmHg 68%
    13:00 +25°C° 1 mm 2 mps 628 mmHg 69%
    14:00 +25°C° 1 mm 2 mps 628 mmHg 70%
    15:00 +25°C° 1.3 mm 1 mps 628 mmHg 74%
    16:00 +24°C° 1.3 mm 1 mps 627 mmHg 78%
    17:00 +23°C° 1.3 mm 1 mps 627 mmHg 82%
    18:00 +22°C° 0.6 mm 1 mps 627 mmHg 84%
    19:00 +19°C° 0.6 mm 0 mps 628 mmHg 86%
    20:00 +17°C° 0.6 mm 0 mps 628 mmHg 88%
    21:00 +17°C° 0.8 mm 0 mps 628 mmHg 89%
    22:00 +19°C° 0.8 mm 1 mps 628 mmHg 91%
    23:00 +19°C° 0.8 mm 1 mps 628 mmHg 92%

    Tomorrow, 22 November, Thursday

    Time Temperature Precipitation Wind Pressure Humidity
    00:00 +18°C° 0.4 mm 1 mps 628 mmHg 92%
    01:00 +18°C° 0.4 mm 1 mps 628 mmHg 92%
    02:00 +18°C° 0.4 mm 1 mps 627 mmHg 92%
    03:00 +18°C° 0.1 mm 1 mps 627 mmHg 92%
    04:00 +18°C° 0.1 mm 1 mps 627 mmHg 93%
    05:00 +16°C° 0.1 mm 1 mps 627 mmHg 93%
    06:00 +18°C° 0.1 mm 1 mps 628 mmHg 91%
    07:00 +19°C° 0.1 mm 1 mps 629 mmHg 89%
    08:00 +20°C° 0.1 mm 1 mps 629 mmHg 86%
    09:00 +21°C° 0.3 mm 1 mps 629 mmHg 82%
    10:00 +22°C° 0.3 mm 1 mps 630 mmHg 78%
    11:00 +23°C° 0.3 mm 1 mps 630 mmHg 74%
    12:00 +24°C° 0.4 mm 1 mps 629 mmHg 72%
    13:00 +24°C° 0.4 mm 1 mps 629 mmHg 70%
    14:00 +25°C° 0.4 mm 1 mps 628 mmHg 68%
    15:00 +24°C° 0.9 mm 1 mps 628 mmHg 74%
    16:00 +23°C° 0.9 mm 1 mps 627 mmHg 80%
    17:00 +22°C° 0.9 mm 1 mps 627 mmHg 86%
    18:00 +19°C° 0.7 mm 0 mps 628 mmHg 88%
    19:00 +18°C° 0.7 mm 0 mps 628 mmHg 89%
    20:00 +17°C° 0.7 mm 0 mps 628 mmHg 90%
    21:00 +16°C° 0.5 mm 0 mps 628 mmHg 91%
    22:00 +18°C° 0.5 mm 1 mps 629 mmHg 92%
    23:00 +18°C° 0.5 mm 1 mps 629 mmHg 93%

    Day after tomorrow, 23 November, Friday

    Time Temperature Precipitation Wind Pressure Humidity
    00:00 +18°C° 0.2 mm 1 mps 628 mmHg 93%
    01:00 +18°C° 0.2 mm 1 mps 628 mmHg 93%
    02:00 +18°C° 0.2 mm 1 mps 627 mmHg 93%
    03:00 +16°C° 0 mm 1 mps 627 mmHg 94%
    04:00 +16°C° 0 mm 1 mps 627 mmHg 94%
    05:00 +16°C° 0 mm 1 mps 627 mmHg 94%
    06:00 +18°C° 0 mm 1 mps 628 mmHg 91%
    07:00 +20°C° 0 mm 1 mps 629 mmHg 87%
    08:00 +21°C° 0 mm 1 mps 630 mmHg 83%
    09:00 +22°C° 0.6 mm 1 mps 630 mmHg 79%
    10:00 +21°C° 0.6 mm 0 mps 631 mmHg 75%
    11:00 +23°C° 0.6 mm 0 mps 631 mmHg 71%
    12:00 +24°C° 0.5 mm 1 mps 630 mmHg 72%
    13:00 +24°C° 0.5 mm 1 mps 629 mmHg 73%
    14:00 +23°C° 0.5 mm 1 mps 628 mmHg 75%
    15:00 +23°C° 0.8 mm 1 mps 628 mmHg 79%
    16:00 +22°C° 0.8 mm 1 mps 628 mmHg 84%
    17:00 +19°C° 0.8 mm 0 mps 627 mmHg 88%
    18:00 +18°C° 0.2 mm 0 mps 628 mmHg 89%
    19:00 +17°C° 0.2 mm 0 mps 628 mmHg 91%
    20:00 +16°C° 0.2 mm 0 mps 628 mmHg 92%
    21:00 +16°C° 0 mm 0 mps 629 mmHg 92%
    22:00 +16°C° 0 mm 0 mps 629 mmHg 93%
    23:00 +18°C° 0 mm 1 mps 629 mmHg 94%

    24 November, Saturday

    Time Temperature Precipitation Wind Pressure Humidity
    00:00 +15°C° 0 mm 0 mps 628 mmHg 94%
    01:00 +15°C° 0 mm 0 mps 628 mmHg 95%
    02:00 +15°C° 0 mm 0 mps 627 mmHg 95%
    03:00 +15°C° 0 mm 0 mps 627 mmHg 95%
    04:00 +15°C° 0 mm 0 mps 627 mmHg 95%
    05:00 +16°C° 0 mm 1 mps 628 mmHg 96%
    06:00 +16°C° 0 mm 0 mps 628 mmHg 92%
    07:00 +17°C° 0 mm 0 mps 629 mmHg 88%
    08:00 +19°C° 0 mm 0 mps 630 mmHg 84%
    09:00 +21°C° 0.1 mm 0 mps 631 mmHg 77%
    10:00 +23°C° 0.1 mm 0 mps 631 mmHg 69%
    11:00 +26°C° 0.1 mm 1 mps 631 mmHg 61%
    12:00 +26°C° 0.6 mm 1 mps 630 mmHg 63%
    13:00 +26°C° 0.6 mm 1 mps 630 mmHg 65%
    14:00 +25°C° 0.6 mm 1 mps 629 mmHg 67%
    15:00 +24°C° 0.8 mm 1 mps 628 mmHg 72%
    16:00 +24°C° 0.8 mm 1 mps 628 mmHg 77%
    17:00 +21°C° 0.8 mm 0 mps 628 mmHg 82%
    18:00 +19°C° 0.1 mm 0 mps 628 mmHg 84%
    19:00 +18°C° 0.1 mm 0 mps 628 mmHg 87%
    20:00 +17°C° 0.1 mm 0 mps 629 mmHg 89%
    21:00 +16°C° 0.2 mm 0 mps 629 mmHg 91%
    22:00 +16°C° 0.2 mm 0 mps 629 mmHg 92%
    23:00 +16°C° 0.2 mm 1 mps 629 mmHg 93%

    25 November, Sunday

    Time Temperature Precipitation Wind Pressure Humidity
    00:00 +16°C° 0 mm 1 mps 628 mmHg 94%
    01:00 +16°C° 0 mm 1 mps 627 mmHg 94%
    02:00 +16°C° 0 mm 1 mps 627 mmHg 95%
    03:00 +16°C° 0 mm 1 mps 627 mmHg 95%
    04:00 +15°C° 0 mm 0 mps 627 mmHg 94%
    05:00 +15°C° 0 mm 0 mps 628 mmHg 94%
    06:00 +16°C° 0 mm 0 mps 629 mmHg 90%
    07:00 +18°C° 0 mm 0 mps 630 mmHg 86%
    08:00 +19°C° 0 mm 0 mps 631 mmHg 82%
    09:00 +22°C° 0.4 mm 1 mps 630 mmHg 80%
    10:00 +22°C° 0.4 mm 1 mps 630 mmHg 78%
    11:00 +23°C° 0.4 mm 1 mps 630 mmHg 77%
    12:00 +24°C° 0.7 mm 1 mps 629 mmHg 73%
    13:00 +25°C° 0.7 mm 1 mps 629 mmHg 68%
    14:00 +26°C° 0.7 mm 1 mps 629 mmHg 64%
    15:00 +25°C° 1.3 mm 1 mps 628 mmHg 71%
    16:00 +24°C° 1.3 mm 1 mps 628 mmHg 78%
    17:00 +22°C° 1.3 mm 1 mps 627 mmHg 85%
    18:00 +21°C° 0.8 mm 1 mps 628 mmHg 87%
    19:00 +20°C° 0.8 mm 1 mps 628 mmHg 89%
    20:00 +17°C° 0.8 mm 0 mps 628 mmHg 91%
    21:00 +17°C° 0.3 mm 0 mps 628 mmHg 91%
    22:00 +16°C° 0.3 mm 0 mps 628 mmHg 91%
    23:00 +16°C° 0.3 mm 0 mps 628 mmHg 92%

    26 November, Monday

    Time Temperature Precipitation Wind Pressure Humidity
    00:00 +16°C° 0 mm 0 mps 627 mmHg 92%
    01:00 +18°C° 0 mm 1 mps 627 mmHg 92%
    02:00 +16°C° 0 mm 1 mps 626 mmHg 92%
    03:00 +16°C° 0 mm 1 mps 626 mmHg 92%
    04:00 +15°C° 0 mm 0 mps 627 mmHg 92%
    05:00 +15°C° 0 mm 0 mps 627 mmHg 92%
    06:00 +17°C° 0 mm 0 mps 628 mmHg 88%
    07:00 +18°C° 0 mm 0 mps 628 mmHg 85%
    08:00 +19°C° 0 mm 0 mps 629 mmHg 82%
    09:00 +23°C° 0.3 mm 1 mps 629 mmHg 76%
    10:00 +24°C° 0.3 mm 1 mps 629 mmHg 70%
    11:00 +26°C° 0.3 mm 1 mps 629 mmHg 64%
    12:00 +26°C° 1.1 mm 1 mps 629 mmHg 66%
    13:00 +25°C° 1.1 mm 1 mps 628 mmHg 69%
    14:00 +25°C° 1.1 mm 1 mps 627 mmHg 71%
    15:00 +24°C° 1.3 mm 1 mps 627 mmHg 76%
    16:00 +24°C° 1.3 mm 1 mps 626 mmHg 81%
    17:00 +23°C° 1.3 mm 1 mps 626 mmHg 85%
    18:00 +21°C° 0.3 mm 1 mps 627 mmHg 87%
    19:00 +18°C° 0.3 mm 0 mps 627 mmHg 88%
    20:00 +17°C° 0.3 mm 0 mps 627 mmHg 90%
    21:00 +17°C° 0.1 mm 0 mps 627 mmHg 91%
    22:00 +18°C° 0.1 mm 1 mps 627 mmHg 92%
    23:00 +18°C° 0.1 mm 1 mps 627 mmHg 93%
    Show more